GW2129 Weather Reports


Display with metric or nautical units.
time (UTC)temp
F
wind
direction
speed
MPH
gust
MPH
rain 1hr
in
rain 24hr
in
rain mn
in
humidity
%
barometer
mb
20260504190443 82 247 1.0 5.0 0.00 0.00 0.00 58 1013.0
20260504185940 82 327 2.0 4.0 0.00 0.00 0.00 60 1012.9
20260504185438 82 297 3.0 6.0 0.00 0.00 0.00 60 1013.0
20260504184934 82 202 5.0 5.0 0.00 0.00 0.00 57 1013.3
20260504184429 82 239 4.0 9.0 0.00 0.00 0.00 58 1013.3
20260504183925 82 330 4.0 5.0 0.00 0.00 0.00 59 1013.5
20260504183423 81 235 3.0 5.0 0.00 0.00 0.00 60 1013.7
20260504182921 82 262 3.0 5.0 0.00 0.00 0.00 57 1013.6
20260504182417 81 329 1.0 6.0 0.00 0.00 0.00 61 1013.8
20260504181914 81 229 1.0 5.0 0.00 0.00 0.00 62 1013.6
20260504181412 80 258 3.0 4.0 0.00 0.00 0.00 62 1013.6
20260504180910 80 276 4.0 6.0 0.00 0.00 0.00 63 1013.6
20260504180409 80 241 3.0 9.0 0.00 0.00 0.00 61 1014.0
20260504175907 80 267 0.0 6.0 0.00 0.00 0.00 63 1014.0
20260504175403 80 287 2.0 4.0 0.00 0.00 0.00 65 1014.0
20260504174901 79 241 2.0 4.0 0.00 0.00 0.00 63 1014.0
20260504174358 80 205 3.0 10.0 0.00 0.00 0.00 61 1014.2
20260504173855 78 243 1.0 5.0 0.00 0.00 0.00 64 1014.4
20260504173352 77 234 2.0 5.0 0.00 0.00 0.00 66 1014.1
20260504172849 77 280 2.0 5.0 0.00 0.00 0.00 66 1014.3
20260504172346 78 235 2.0 6.0 0.00 0.00 0.00 65 1014.4
20260504171841 78 228 4.0 5.0 0.00 0.00 0.00 65 1014.6
20260504171339 78 335 3.0 5.0 0.00 0.00 0.00 65 1014.7
20260504170836 77 61 1.0 5.0 0.00 0.00 0.00 67 1014.9
20260504170332 78 13 2.0 5.0 0.00 0.00 0.00 66 1014.3
20260504160251 73 100 5.0 7.0 0.00 0.00 0.00 73 1015.3
20260504150716 71 200 2.0 5.0 0.00 0.00 0.00 74 1015.6
20260504150213 71 63 1.0 3.0 0.00 0.00 0.00 75 1015.5
20260504141142 67 57 1.0 5.0 0.00 0.00 0.00 78 1015.6
20260504140639 68 227 3.0 3.0 0.00 0.00 0.00 78 1015.7
20260504140134 67 53 2.0 4.0 0.00 0.00 0.00 78 1015.6
20260504130603 63 89 0.0 3.0 0.00 0.00 0.00 83 1015.6
20260504110451 60 89 0.0 1.0 0.00 0.00 0.00 89 1015.4
20260504100413 60 52 0.0 0.0 0.00 0.00 0.00 86 1015.6
20260504081806 61 269 0.0 2.0 0.00 0.00 0.00 84 1016.0
20260504081302 61 146 0.0 1.0 0.00 0.00 0.00 84 1016.1
20260504080759 61 230 0.0 1.0 0.00 0.00 0.00 84 1016.2
20260504080255 61 37 0.0 0.0 0.00 0.00 0.00 83 1016.0
20260504070223 63 141 0.0 1.0 0.00 0.00 0.00 78 1017.0
20260504060143 65 21 0.0 5.0 0.00 0.00 0.00 72 1017.9
20260504050612 66 202 0.0 2.0 0.00 0.00 0.00 69 1017.9
20260504050109 66 204 3.0 4.0 0.00 0.00 0.00 69 1018.1
20260504045606 66 211 1.0 2.0 0.00 0.06 0.06 68 1018.3
20260504045100 66 228 2.0 3.0 0.00 0.06 0.06 68 1018.0
20260504044559 66 73 0.0 4.0 0.00 0.06 0.06 67 1018.2
20260504044055 66 203 2.0 3.0 0.00 0.06 0.06 67 1018.3
20260504043552 66 55 0.0 3.0 0.00 0.06 0.06 67 1018.2
20260504043049 66 166 2.0 5.0 0.00 0.06 0.06 66 1018.4
20260504042546 66 267 2.0 3.0 0.00 0.06 0.06 66 1018.3
20260504042043 66 296 0.0 3.0 0.00 0.06 0.06 66 1018.2
20260504041539 66 121 3.0 3.0 0.00 0.06 0.06 65 1018.1
20260504041035 66 201 0.0 4.0 0.00 0.06 0.06 65 1018.3
20260504040533 67 177 2.0 3.0 0.00 0.06 0.06 64 1018.5
20260504040030 67 0 0.0 4.0 0.00 0.06 0.06 64 1018.5
20260504035526 67 307 2.0 4.0 0.00 0.06 0.06 64 1018.4
20260504035023 67 244 1.0 3.0 0.00 0.06 0.06 64 1018.3
20260504034521 67 155 1.0 3.0 0.00 0.06 0.06 63 1018.4
20260504034017 67 201 2.0 4.0 0.00 0.06 0.06 63 1018.4
20260504033515 67 231 0.0 3.0 0.00 0.06 0.06 63 1018.3
20260504033013 67 305 1.0 4.0 0.00 0.06 0.06 63 1018.3
20260504032509 68 209 2.0 5.0 0.00 0.06 0.06 62 1018.2
20260504032006 68 19 0.0 5.0 0.00 0.06 0.06 62 1018.2
20260504031503 68 250 2.0 3.0 0.00 0.06 0.06 61 1018.1
20260504030959 68 307 2.0 3.0 0.00 0.06 0.06 61 1018.2
20260504030457 68 305 1.0 3.0 0.00 0.06 0.06 60 1018.0
20260504025952 68 256 1.0 3.0 0.00 0.06 0.06 59 1018.1
20260504025450 68 223 0.0 3.0 0.00 0.06 0.06 58 1018.2
20260504024946 69 304 2.0 3.0 0.00 0.06 0.06 58 1018.0
20260504024443 69 177 2.0 4.0 0.00 0.06 0.06 56 1018.0
20260504023940 69 294 0.0 6.0 0.00 0.06 0.06 55 1018.1
20260504023437 69 143 3.0 4.0 0.00 0.06 0.06 54 1018.2
20260504022932 69 183 1.0 3.0 0.00 0.06 0.06 54 1018.0
20260504022429 68 33 2.0 2.0 0.00 0.06 0.06 55 1018.0
20260504021926 68 279 0.0 2.0 0.00 0.06 0.06 56 1018.0
20260504021423 68 302 0.0 1.0 0.00 0.06 0.06 55 1017.9
20260504020920 69 210 0.0 3.0 0.00 0.06 0.06 54 1017.9
20260504020417 68 283 0.0 1.0 0.00 0.06 0.06 55 1018.0
20260504015914 68 230 0.0 0.0 0.00 0.06 0.06 55 1017.8
20260504015409 68 309 0.0 0.0 0.00 0.06 0.06 56 1017.6
20260504014906 68 269 0.0 1.0 0.00 0.06 0.06 55 1017.7
20260504014402 69 198 0.0 2.0 0.00 0.06 0.06 54 1017.3
20260504013859 69 248 0.0 1.0 0.00 0.06 0.06 53 1017.4
20260504013357 69 247 0.0 0.0 0.00 0.06 0.06 53 1017.5
20260504012853 70 235 0.0 1.0 0.00 0.06 0.06 52 1017.6
20260504012351 71 269 0.0 0.0 0.00 0.06 0.06 50 1017.4
20260504011848 72 129 0.0 1.0 0.00 0.06 0.06 49 1017.4
20260504011345 72 195 0.0 2.0 0.00 0.06 0.06 48 1017.3
20260504010841 73 107 0.0 3.0 0.00 0.06 0.06 47 1017.3
20260504010336 73 180 0.0 3.0 0.00 0.06 0.06 46 1017.1
20260504005833 73 199 0.0 3.0 0.00 0.06 0.06 46 1017.2
20260504005330 74 112 2.0 4.0 0.00 0.06 0.06 45 1017.3
20260504004828 74 147 0.0 3.0 0.00 0.06 0.06 45 1017.4
20260504004325 75 136 1.0 2.0 0.00 0.06 0.06 44 1017.4
20260504003821 75 132 3.0 3.0 0.00 0.06 0.06 44 1017.6
20260504003319 75 132 1.0 3.0 0.00 0.06 0.06 43 1017.6
20260504002815 76 205 0.0 3.0 0.00 0.06 0.06 41 1017.6
20260504002312 76 246 0.0 3.0 0.00 0.06 0.06 41 1017.5
20260504001810 76 136 1.0 5.0 0.00 0.06 0.06 40 1017.8
20260504001307 76 251 0.0 4.0 0.00 0.06 0.06 40 1017.7
20260504000804 77 217 1.0 3.0 0.00 0.06 0.06 41 1017.9
20260504000301 78 110 3.0 5.0 0.00 0.06 0.06 39 1017.9
20260503235758 78 267 2.0 3.0 0.00 0.06 0.06 39 1018.1
20260503235256 78 128 2.0 6.0 0.00 0.06 0.06 39 1017.8
20260503234753 80 252 0.0 3.0 0.00 0.06 0.06 38 1018.0
20260503234251 79 314 0.0 6.0 0.00 0.06 0.06 37 1018.1
20260503233748 80 159 1.0 4.0 0.00 0.06 0.06 37 1018.1
20260503233244 80 272 2.0 5.0 0.00 0.06 0.06 37 1018.1
20260503232741 80 32 2.0 5.0 0.00 0.06 0.06 35 1018.1
20260503232238 80 238 1.0 4.0 0.00 0.06 0.06 36 1017.9
20260503231736 79 124 3.0 7.0 0.00 0.06 0.06 36 1017.7
20260503231232 80 205 1.0 6.0 0.00 0.06 0.06 35 1018.1
20260503230728 80 209 2.0 4.0 0.00 0.06 0.06 35 1018.1
20260503230226 80 183 3.0 7.0 0.00 0.06 0.06 35 1017.9
20260503225723 81 114 3.0 5.0 0.00 0.06 0.06 36 1018.0
20260503225218 81 12 3.0 4.0 0.00 0.06 0.06 36 1018.1
20260503224715 81 235 3.0 5.0 0.00 0.06 0.06 35 1018.1
20260503224213 81 0 4.0 5.0 0.00 0.06 0.06 36 1018.2
20260503223710 81 199 2.0 5.0 0.00 0.06 0.06 35 1018.2
20260503223207 81 335 3.0 5.0 0.00 0.06 0.06 36 1018.1
20260503222704 80 262 1.0 4.0 0.00 0.06 0.06 35 1018.4
20260503222202 79 193 3.0 5.0 0.00 0.06 0.06 35 1018.5
20260503221700 80 240 4.0 7.0 0.00 0.06 0.06 35 1018.4
20260503221157 82 188 1.0 4.0 0.00 0.06 0.06 33 1018.3
20260503220654 80 240 4.0 5.0 0.00 0.06 0.06 34 1018.7
20260503220150 80 191 2.0 4.0 0.00 0.06 0.06 34 1018.7
20260503215647 80 252 2.0 4.0 0.00 0.06 0.06 35 1018.9
20260503215144 81 265 3.0 5.0 0.00 0.06 0.06 34 1018.9
20260503214643 82 286 4.0 5.0 0.00 0.06 0.06 34 1018.9
20260503214138 82 156 3.0 5.0 0.00 0.06 0.06 35 1019.0
20260503213637 81 277 3.0 4.0 0.00 0.06 0.06 35 1018.8
20260503213134 79 212 3.0 5.0 0.00 0.06 0.06 36 1019.1
20260503212631 81 93 3.0 5.0 0.00 0.06 0.06 35 1019.2
20260503212129 81 357 2.0 5.0 0.00 0.06 0.06 34 1019.2
20260503211626 82 248 3.0 5.0 0.00 0.06 0.06 34 1019.6
20260503211121 82 215 3.0 4.0 0.00 0.06 0.06 34 1019.6
20260503210618 81 251 3.0 5.0 0.00 0.06 0.06 33 1019.7
20260503210114 80 159 2.0 4.0 0.00 0.06 0.06 34 1019.9
20260503205605 82 196 2.0 5.0 0.00 0.06 0.06 34 1020.0
20260503205101 81 305 1.0 9.0 0.00 0.06 0.06 36 1020.0
20260503204558 81 102 2.0 4.0 0.00 0.06 0.06 39 1020.1
20260503204056 82 316 3.0 7.0 0.00 0.06 0.06 36 1020.3
20260503203553 80 258 2.0 4.0 0.00 0.06 0.06 37 1020.4
20260503203050 80 121 3.0 12.0 0.00 0.06 0.06 37 1020.4
20260503202548 81 180 2.0 4.0 0.00 0.06 0.06 37 1020.6
20260503202045 81 265 1.0 6.0 0.00 0.06 0.06 36 1020.5
20260503201543 80 303 4.0 6.0 0.00 0.06 0.06 35 1020.7
20260503201040 80 246 4.0 9.0 0.00 0.06 0.06 35 1020.8
20260503200536 79 312 0.0 5.0 0.00 0.06 0.06 38 1020.8
20260503200033 79 132 4.0 7.0 0.00 0.06 0.06 35 1020.8
20260503195530 80 127 2.0 5.0 0.00 0.06 0.06 35 1020.8
20260503195027 80 253 3.0 4.0 0.00 0.06 0.06 35 1021.0
20260503194525 80 232 2.0 6.0 0.00 0.06 0.06 34 1021.0
20260503194024 80 137 2.0 7.0 0.00 0.06 0.06 35 1021.2
20260503193521 80 161 2.0 5.0 0.00 0.06 0.06 33 1021.0
20260503193016 79 116 2.0 4.0 0.00 0.06 0.06 36 1021.3
20260503192512 80 146 1.0 12.0 0.00 0.06 0.06 35 1021.4
20260503192008 79 311 2.0 5.0 0.00 0.06 0.06 37 1021.3
20260503191506 79 148 7.0 7.0 0.00 0.06 0.06 36 1021.4
20260503191002 79 228 7.0 7.0 0.00 0.06 0.06 36 1021.4